Live Position
Loading 3D Globe...
About SPAWAR-CAL-OR
Group: 3 satellites
Description loading...
Upcoming Passes
Passes for default location (London). Set your location on the main map for personalized predictions.
Altitude History
Loading altitude history...
No altitude history available
Two-Line Element Set
1 43778U 18099W 26106.61448726 .00005388 00000-0 23676-3 0 9990
2 43778 97.3861 155.9128 0012361 165.2586 194.9013 15.22255833403282
Epoch: Apr 16, 2026 •
Age: 22 hours
Current Status
Altitude 524.8 km
Velocity 7.60 km/s
Sub-Earth Point -47.27°S,
129.8°E
Launch Date Dec 3, 2018
Age 7.3 years
Type other
Technical Details
Classification Payload
Mass 1.00 kg
Dry Mass 1.00 kg
Total Mass 1.00 kg
Length 0.10 m
Diameter 0.10 m
Span 0.10 m
Shape Box
Manufacturer SPAWAR
Bus Type Cubesat 1U
Phase Status In Orbit
Owner/State SPAWAR/US
Most Searched
Loading...